| time (UTC) | temp F | wind direction | speed MPH | gust MPH | rain 1hr in | rain 24hr in | rain mn in | humidity % | barometer mb |
| 20260505053208 | 41 | 258 | 5.0 | 6.0 | 0.00 | 0.00 | 0.00 | 57 | 1002.5 |
| 20260505053004 | 41 | 261 | 6.0 | 9.0 | 0.00 | 0.00 | 0.00 | 59 | 1002.5 |
| 20260505052004 | 41 | 278 | 7.0 | 12.0 | 0.00 | 0.00 | 0.00 | 59 | 1002.3 |
| 20260505051709 | 41 | 262 | 5.0 | 9.0 | 0.00 | 0.00 | 0.00 | 58 | 1002.4 |
| 20260505051004 | 41 | 264 | 5.0 | 13.0 | 0.00 | 0.00 | 0.00 | 59 | 1002.4 |
| 20260505050210 | 41 | 259 | 5.0 | 8.0 | 0.00 | 0.00 | 0.00 | 60 | 1002.3 |
| 20260505041708 | 41 | 258 | 5.0 | 8.0 | 0.00 | 0.00 | 0.00 | 58 | 1002.4 |
| 20260505041004 | 41 | 265 | 8.0 | 12.0 | 0.00 | 0.00 | 0.00 | 58 | 1002.3 |
| 20260505040210 | 41 | 253 | 5.0 | 7.0 | 0.00 | 0.00 | 0.00 | 61 | 1002.4 |
| 20260505040004 | 41 | 263 | 6.0 | 10.0 | 0.00 | 0.00 | 0.00 | 61 | 1002.3 |
| 20260505035004 | 41 | 263 | 5.0 | 10.0 | 0.00 | 0.00 | 0.00 | 59 | 1002.4 |
| 20260505034709 | 41 | 259 | 7.0 | 8.0 | 0.00 | 0.00 | 0.00 | 57 | 1002.4 |
| 20260505034004 | 41 | 264 | 6.0 | 9.0 | 0.00 | 0.00 | 0.00 | 55 | 1002.3 |
| 20260505033209 | 41 | 249 | 5.0 | 5.0 | 0.00 | 0.00 | 0.00 | 58 | 1002.3 |
| 20260505033003 | 41 | 268 | 6.0 | 12.0 | 0.00 | 0.00 | 0.00 | 57 | 1002.3 |
| 20260505032004 | 42 | 258 | 7.0 | 12.0 | 0.00 | 0.00 | 0.00 | 54 | 1002.2 |
| 20260505031710 | 42 | 265 | 7.0 | 9.0 | 0.00 | 0.00 | 0.00 | 56 | 1002.3 |
| 20260505030209 | 42 | 260 | 7.0 | 8.0 | 0.00 | 0.00 | 0.00 | 55 | 1002.1 |
| 20260505030004 | 42 | 265 | 7.0 | 13.0 | 0.00 | 0.00 | 0.00 | 56 | 1002.1 |
| 20260505025004 | 42 | 263 | 9.0 | 15.0 | 0.00 | 0.00 | 0.00 | 54 | 1002.1 |
| 20260505024709 | 42 | 280 | 6.0 | 13.0 | 0.00 | 0.00 | 0.00 | 55 | 1002.1 |
| 20260505024004 | 42 | 257 | 5.0 | 14.0 | 0.00 | 0.00 | 0.00 | 55 | 1002.1 |
| 20260505023208 | 42 | 274 | 7.0 | 10.0 | 0.00 | 0.00 | 0.00 | 54 | 1002.0 |
| 20260505023004 | 42 | 256 | 7.0 | 12.0 | 0.00 | 0.00 | 0.00 | 53 | 1002.0 |
| 20260505022003 | 43 | 254 | 7.0 | 15.0 | 0.00 | 0.00 | 0.00 | 54 | 1001.8 |
| 20260505021708 | 43 | 267 | 9.0 | 15.0 | 0.00 | 0.00 | 0.00 | 59 | 1001.8 |
| 20260505021003 | 43 | 263 | 7.0 | 16.0 | 0.00 | 0.00 | 0.00 | 54 | 1001.6 |
| 20260505020210 | 43 | 264 | 10.0 | 14.0 | 0.00 | 0.00 | 0.00 | 57 | 1001.7 |
| 20260505020004 | 43 | 252 | 7.0 | 15.0 | 0.00 | 0.00 | 0.00 | 54 | 1001.6 |
| 20260505015004 | 43 | 260 | 6.0 | 12.0 | 0.00 | 0.00 | 0.00 | 55 | 1001.4 |
| 20260505014709 | 43 | 269 | 8.0 | 12.0 | 0.00 | 0.00 | 0.00 | 53 | 1001.3 |
| 20260505014004 | 43 | 277 | 9.0 | 18.0 | 0.00 | 0.00 | 0.00 | 54 | 1001.3 |
| 20260505013208 | 43 | 253 | 8.0 | 15.0 | 0.00 | 0.00 | 0.00 | 52 | 1001.2 |
| 20260505013003 | 44 | 262 | 9.0 | 23.0 | 0.00 | 0.00 | 0.00 | 55 | 1001.2 |
| 20260505012003 | 44 | 269 | 12.0 | 26.0 | 0.00 | 0.00 | 0.00 | 53 | 1001.1 |
| 20260505011708 | 44 | 265 | 12.0 | 14.0 | 0.00 | 0.00 | 0.00 | 53 | 1001.0 |
| 20260505010210 | 44 | 276 | 10.0 | 22.0 | 0.00 | 0.00 | 0.00 | 54 | 1000.7 |
| 20260505010005 | 44 | 269 | 15.0 | 26.0 | 0.00 | 0.00 | 0.00 | 52 | 1000.5 |
| 20260505005005 | 44 | 257 | 9.0 | 16.0 | 0.00 | 0.00 | 0.00 | 53 | 1000.4 |
| 20260505004710 | 44 | 287 | 7.0 | 10.0 | 0.00 | 0.00 | 0.00 | 55 | 1000.4 |
| 20260505003211 | 45 | 282 | 12.0 | 17.0 | 0.00 | 0.00 | 0.00 | 50 | 1000.4 |
| 20260505003005 | 45 | 274 | 14.0 | 28.0 | 0.00 | 0.00 | 0.00 | 50 | 1000.4 |
| 20260505002006 | 46 | 268 | 12.0 | 25.0 | 0.00 | 0.00 | 0.00 | 51 | 1000.1 |
| 20260505001710 | 46 | 267 | 10.0 | 17.0 | 0.00 | 0.00 | 0.00 | 51 | 1000.1 |
| 20260505001005 | 47 | 346 | 10.0 | 25.0 | 0.00 | 0.00 | 0.00 | 51 | 999.7 |
| 20260505000211 | 47 | 296 | 6.0 | 6.0 | 0.00 | 0.00 | 0.00 | 55 | 999.6 |
| 20260505000005 | 46 | 268 | 12.0 | 24.0 | 0.00 | 0.00 | 0.00 | 53 | 999.4 |
| 20260504234711 | 47 | 263 | 15.0 | 16.0 | 0.00 | 0.00 | 0.00 | 50 | 999.4 |
| 20260504234005 | 48 | 262 | 8.0 | 21.0 | 0.00 | 0.00 | 0.00 | 51 | 999.2 |
| 20260504233210 | 49 | 266 | 10.0 | 15.0 | 0.00 | 0.00 | 0.00 | 52 | 999.1 |
| 20260504233005 | 49 | 253 | 10.0 | 20.0 | 0.00 | 0.00 | 0.00 | 52 | 999.1 |
| 20260504231711 | 49 | 289 | 13.0 | 20.0 | 0.00 | 0.00 | 0.00 | 47 | 998.8 |
| 20260504231005 | 49 | 270 | 7.0 | 20.0 | 0.00 | 0.00 | 0.00 | 49 | 998.9 |
| 20260504230210 | 49 | 284 | 6.0 | 20.0 | 0.00 | 0.00 | 0.00 | 48 | 998.8 |
| 20260504230005 | 49 | 260 | 7.0 | 18.0 | 0.00 | 0.00 | 0.00 | 47 | 998.8 |
| 20260504225005 | 50 | 262 | 12.0 | 26.0 | 0.00 | 0.00 | 0.00 | 46 | 998.6 |
| 20260504224711 | 50 | 269 | 10.0 | 13.0 | 0.00 | 0.00 | 0.00 | 47 | 998.5 |
| 20260504224005 | 50 | 279 | 11.0 | 24.0 | 0.00 | 0.00 | 0.00 | 45 | 998.5 |
| 20260504223211 | 51 | 280 | 7.0 | 22.0 | 0.00 | 0.00 | 0.00 | 43 | 998.2 |
| 20260504223005 | 51 | 296 | 7.0 | 18.0 | 0.00 | 0.00 | 0.00 | 44 | 998.2 |
| 20260504222006 | 51 | 255 | 14.0 | 22.0 | 0.00 | 0.00 | 0.00 | 45 | 998.0 |
| 20260504221711 | 51 | 254 | 8.0 | 14.0 | 0.00 | 0.00 | 0.00 | 44 | 998.0 |
| 20260504221006 | 50 | 268 | 11.0 | 25.0 | 0.00 | 0.00 | 0.00 | 45 | 998.0 |
| 20260504220211 | 51 | 285 | 13.0 | 16.0 | 0.00 | 0.00 | 0.00 | 47 | 997.9 |
| 20260504220005 | 51 | 257 | 11.0 | 21.0 | 0.00 | 0.00 | 0.00 | 44 | 997.8 |
| 20260504215005 | 51 | 271 | 10.0 | 24.0 | 0.00 | 0.00 | 0.00 | 46 | 997.7 |
| 20260504214710 | 51 | 287 | 9.0 | 14.0 | 0.00 | 0.00 | 0.00 | 46 | 997.5 |
| 20260504214005 | 51 | 270 | 7.0 | 20.0 | 0.00 | 0.00 | 0.00 | 45 | 997.5 |
| 20260504213211 | 51 | 263 | 10.0 | 13.0 | 0.00 | 0.00 | 0.00 | 45 | 997.3 |
| 20260504213006 | 52 | 275 | 10.0 | 21.0 | 0.00 | 0.00 | 0.00 | 45 | 997.3 |
| 20260504212005 | 52 | 270 | 9.0 | 26.0 | 0.00 | 0.00 | 0.00 | 46 | 997.2 |
| 20260504211711 | 52 | 309 | 10.0 | 18.0 | 0.00 | 0.00 | 0.00 | 46 | 997.1 |
| 20260504211005 | 52 | 267 | 17.0 | 29.0 | 0.00 | 0.00 | 0.00 | 49 | 997.0 |
| 20260504210210 | 52 | 254 | 14.0 | 16.0 | 0.00 | 0.00 | 0.00 | 49 | 996.9 |
| 20260504205005 | 52 | 264 | 10.0 | 26.0 | 0.00 | 0.00 | 0.00 | 44 | 996.7 |
| 20260504204710 | 52 | 282 | 12.0 | 17.0 | 0.00 | 0.00 | 0.00 | 45 | 996.8 |
| 20260504203211 | 53 | 267 | 10.0 | 21.0 | 0.00 | 0.00 | 0.00 | 45 | 996.5 |
| 20260504203006 | 53 | 305 | 9.0 | 29.0 | 0.00 | 0.00 | 0.00 | 46 | 996.5 |
| 20260504201711 | 53 | 267 | 13.0 | 20.0 | 0.00 | 0.00 | 0.00 | 46 | 996.2 |
| 20260504201005 | 54 | 258 | 16.0 | 29.0 | 0.00 | 0.00 | 0.00 | 44 | 995.9 |
| 20260504200211 | 55 | 279 | 16.0 | 20.0 | 0.00 | 0.00 | 0.00 | 44 | 995.8 |
| 20260504200005 | 55 | 285 | 11.0 | 29.0 | 0.00 | 0.00 | 0.00 | 41 | 995.8 |
| 20260504195005 | 55 | 271 | 13.0 | 32.0 | 0.00 | 0.00 | 0.00 | 45 | 995.6 |
| 20260504194710 | 55 | 273 | 14.0 | 18.0 | 0.00 | 0.00 | 0.00 | 46 | 995.4 |
| 20260504194005 | 54 | 271 | 11.0 | 23.0 | 0.00 | 0.00 | 0.00 | 45 | 995.2 |
| 20260504193210 | 55 | 281 | 15.0 | 20.0 | 0.00 | 0.00 | 0.00 | 46 | 995.2 |
| 20260504193005 | 55 | 257 | 16.0 | 21.0 | 0.00 | 0.00 | 0.00 | 47 | 995.1 |
| 20260504192005 | 55 | 256 | 9.0 | 23.0 | 0.00 | 0.00 | 0.00 | 46 | 995.0 |
| 20260504191710 | 55 | 255 | 9.0 | 12.0 | 0.00 | 0.00 | 0.00 | 46 | 995.0 |
| 20260504191005 | 55 | 260 | 15.0 | 25.0 | 0.00 | 0.00 | 0.00 | 49 | 994.8 |
| 20260504190210 | 55 | 260 | 13.0 | 14.0 | 0.00 | 0.00 | 0.00 | 48 | 994.7 |
| 20260504190005 | 55 | 257 | 13.0 | 26.0 | 0.00 | 0.00 | 0.00 | 44 | 994.7 |
| 20260504185005 | 55 | 270 | 13.0 | 32.0 | 0.00 | 0.00 | 0.00 | 47 | 994.6 |
| 20260504184710 | 55 | 277 | 12.0 | 16.0 | 0.00 | 0.00 | 0.00 | 49 | 994.7 |
| 20260504184005 | 55 | 257 | 16.0 | 29.0 | 0.00 | 0.00 | 0.00 | 48 | 994.6 |
| 20260504183211 | 56 | 289 | 10.0 | 21.0 | 0.00 | 0.00 | 0.00 | 45 | 994.4 |
| 20260504182005 | 55 | 284 | 12.0 | 26.0 | 0.00 | 0.00 | 0.00 | 48 | 994.2 |
| 20260504181710 | 55 | 254 | 16.0 | 18.0 | 0.00 | 0.00 | 0.00 | 50 | 994.2 |
| 20260504181005 | 56 | 256 | 14.0 | 26.0 | 0.00 | 0.00 | 0.00 | 49 | 994.1 |
| 20260504180210 | 56 | 258 | 20.0 | 24.0 | 0.00 | 0.00 | 0.00 | 52 | 994.1 |
| 20260504180005 | 55 | 260 | 13.0 | 26.0 | 0.00 | 0.00 | 0.00 | 52 | 993.9 |
| 20260504175005 | 55 | 264 | 15.0 | 23.0 | 0.00 | 0.00 | 0.00 | 55 | 993.9 |
| 20260504174711 | 54 | 247 | 13.0 | 23.0 | 0.00 | 0.00 | 0.00 | 53 | 994.0 |
| 20260504174005 | 55 | 263 | 17.0 | 25.0 | 0.00 | 0.00 | 0.00 | 52 | 993.9 |
| 20260504173209 | 55 | 272 | 12.0 | 20.0 | 0.00 | 0.00 | 0.00 | 52 | 993.8 |
| 20260504173005 | 55 | 261 | 16.0 | 29.0 | 0.00 | 0.00 | 0.00 | 53 | 993.7 |
| 20260504172005 | 55 | 253 | 14.0 | 26.0 | 0.00 | 0.00 | 0.00 | 51 | 993.8 |
| 20260504171710 | 55 | 261 | 14.0 | 20.0 | 0.00 | 0.00 | 0.00 | 51 | 993.8 |
| 20260504171005 | 55 | 270 | 10.0 | 23.0 | 0.00 | 0.00 | 0.00 | 50 | 994.0 |
| 20260504170210 | 55 | 258 | 16.0 | 23.0 | 0.00 | 0.00 | 0.00 | 50 | 993.8 |
| 20260504160210 | 54 | 264 | 18.0 | 26.0 | 0.00 | 0.00 | 0.00 | 57 | 993.3 |
| 20260504150210 | 54 | 251 | 16.0 | 26.0 | 0.00 | 0.00 | 0.00 | 58 | 992.6 |
| 20260504141005 | 56 | 256 | 6.0 | 21.0 | 0.00 | 0.00 | 0.00 | 61 | 991.8 |
| 20260504140209 | 56 | 255 | 8.0 | 13.0 | 0.00 | 0.00 | 0.00 | 61 | 992.0 |
| 20260504130210 | 59 | 250 | 14.0 | 23.0 | 0.00 | 0.00 | 0.00 | 44 | 991.1 |
| 20260504120210 | 58 | 232 | 17.0 | 20.0 | 0.00 | 0.00 | 0.00 | 45 | 990.6 |
| 20260504110210 | 56 | 213 | 7.0 | 10.0 | 0.00 | 0.00 | 0.00 | 46 | 990.9 |
| 20260504100209 | 54 | 222 | 7.0 | 9.0 | 0.00 | 0.00 | 0.00 | 50 | 992.3 |
| 20260504081711 | 55 | 225 | 8.0 | 9.0 | 0.00 | 0.00 | 0.00 | 45 | 994.7 |
| 20260504081004 | 55 | 231 | 7.0 | 12.0 | 0.00 | 0.00 | 0.00 | 46 | 994.9 |